Regional Weather Roundup
Issued by NWS

Home | Current Version | Previous Version | Text Only | Print | Product List | Glossary On
Versions: 1 2 3 4 5 6 7 8 9 10 11 12 13 14 15 16 17 18 19 20 21 22 23 24 25 26 27 28 29 30 31 32 33 34 35 36 37 38 39 40 41 42 43 44 45 46 47 48 49 50
000
ASUS43 KDMX 170901
RWRIA

WEATHER ROUNDUP FOR IOWA
NATIONAL WEATHER SERVICE DES MOINES IA
400 AM CDT TUE OCT 17 2017

NOTE: "FAIR" INDICATES FEW OR NO CLOUDS BELOW 12,000 FEET WITH NO
SIGNIFICANT WEATHER AND/OR OBSTRUCTIONS TO VISIBILITY.

* - THESE STATIONS ARE NOT NWS STATIONS...THUS NOT UNDER NWS
QUALITY CONTROL.  THEY ALSO DO NOT REPORT WEATHER SUCH
AS PRECIPITATION OR FOG.

IAZ001>003-012>014-020>022-031>034-043>046-171000-
   NORTHWEST IOWA

CITY           SKY/WX    TMP DP  RH WIND       PRES   REMARKS
CARROLL *      PTCLDY    55  43  62 SW15G22   30.07S
CHEROKEE *     CLEAR     46  42  87 S5        30.06S
DENISON *      CLEAR     52  41  66 VRB5G13   30.10S
LE MARS *      CLEAR     43  39  87 S3        30.05S
ORANGE CITY *  CLEAR     46  43  87 S3        30.04F
SHELDON *      CLEAR     41  37  87 SE5       30.03S
SIOUX CITY     CLEAR     41  39  93 SE7       30.06F
SPENCER        CLEAR     50  40  68 SW8       30.04F
STORM LAKE *   CLEAR     50  39  66 SW12      30.06F
$$

IAZ055>058-069>071-079>083-090>094-171000-
   SOUTHWEST IOWA

CITY           SKY/WX    TMP DP  RH WIND       PRES   REMARKS
ATLANTIC *     CLEAR     46  41  81 S8        30.11F
AUDUBON *      CLEAR     52  41  66 S9        30.11S
CLARINDA *     PTCLDY    46  41  81 S6        30.17F
COUNCIL BLFS * CLEAR     54  41  62 S12       30.10S
CRESTON *      CLEAR     48  41  76 SW13      30.15F
HARLAN  *      CLEAR     46  41  81 S7        30.13F
LAMONI         CLEAR     48  40  73 S8        30.17F
RED OAK *      CLEAR     46  41  81 SW3       30.13F
SHENANDOAH *   CLEAR     45  41  87 S6        30.14F
$$

IAZ047>049-059>061-072>074-084-171000-
   CENTRAL IOWA

CITY           SKY/WX    TMP DP  RH WIND       PRES   REMARKS
AMES           CLEAR     51  42  71 SW8       30.10F
ANKENY *       CLEAR     52  41  66 S6        30.13S
BOONE *        CLEAR     52  41  66 SW9       30.09S
CHARITON *     PTCLDY    52  41  66 SW12      30.15S
DES MOINES     CLEAR     54  40  59 S12       30.12F
GRINNELL*      CLEAR     51  41  67 SW8       30.14F
KNOXVILLE *    CLEAR     50  39  66 S8        30.13F
MARSHALLTOWN   CLEAR     51  41  68 SW9       30.10F
NEWTON *       CLEAR     50  41  71 SW9       30.13S
PELLA *        CLEAR     51  40  67 SW7       30.15S
PERRY *          N/A     55  38  52 SW7       30.10S
$$

IAZ004>006-015-016-023>025-035-036-171000-
   NORTH CENTRAL IOWA

CITY           SKY/WX    TMP DP  RH WIND       PRES   REMARKS
ALGONA *       CLEAR     48  41  76 SW9       30.05F
CLARION *      CLEAR     46  41  81 S5        30.08R
ESTHERVILLE    CLEAR     51  40  65 SW9       30.03F
FORT DODGE *   CLEAR     49  40  71 W6        30.08S
MASON CITY     CLEAR     51  39  63 SW12      30.06F
FOREST CITY *    N/A     46  39  76 S5        30.05F
WEBSTER CITY * CLEAR     50  39  66 SW7       30.06S
IOWA FALLS *     N/A     52  42  69 SW10      30.09S
$$

IAZ007>011-017>019-026>030-037>042-050>054-066-171000-
   NORTHEAST IOWA

CITY           SKY/WX    TMP DP  RH WIND       PRES   REMARKS
CEDAR RAPIDS   PTCLDY    49  40  71 SW7       30.13S
CHARLES CITY * CLEAR     48  41  76 SW6       30.07S
CLINTON *      CLEAR     48  40  73 SW8       30.17F
DECORAH *      CLEAR     52  41  66 VRB7G17   30.04F
DUBUQUE        CLOUDY    47  39  74 SW13      30.12S
MONTICELLO *   CLEAR     52  41  66 SW9       30.13S
OELWEIN *        N/A     45  41  87 S7        30.10S
WATERLOO       PTCLDY    52  40  63 SW14      30.08F
$$

IAZ064-065-067-068-078-171000-
   EAST CENTRAL IOWA

CITY           SKY/WX    TMP DP  RH WIND       PRES   REMARKS
DAVENPORT      CLEAR     50  39  66 S7        30.19S
IOWA CITY      CLOUDY    53  40  61 S6        30.17S
MUSCATINE *    CLEAR     54  39  58 S6        30.18S
QUAD CITIES    CLEAR     50  37  61 CALM      30.18S
$$

IAZ062-063-075>077-085>089-095>099-171000-
   SOUTHEAST IOWA

CITY           SKY/WX    TMP DP  RH WIND       PRES   REMARKS
BURLINGTON     PTCLDY    48  42  80 SW7       30.20F
FAIRFIELD *    CLEAR     50  39  66 SW10      30.17S
FORT MADISON * CLOUDY    52  41  66 SW8       30.21S
KEOKUK *       CLEAR     48  41  76 SW7       30.21S
OSKALOOSA *      N/A     47  40  77 SW8       30.17S
OTTUMWA        PTCLDY    51  40  65 SW10      30.16S
WASHINGTON *   CLEAR     48  41  76 SW8       30.18R
$$

ABBREVIATIONS USED IN REMARKS
   TC - TEMPERATURES IN CELSIUS
  WCI - WIND CHILL INDEX
   HX - HEAT INDEX
  VSB - VISIBILITY
$$




USA.gov is the U.S. government's official web portal to all federal, state and local government web resources and services.